Vertical_Velocity
-1 -1 -1 -0 0 0 1 -0 -1 -0 0 -3 -2 -1 -2 -2 -2 -2 -7 2 -9 -8 -12 -3 -7 -2 15 -5 -9 47 24 27 27 17 5 -18 -16 16 14 11 -1 34 -6 -15 -3
-1 -1 -1 -1 -1 -2 -1 -1 0 -1 0 -0 -2 -1 -2 -1 -4 -5 10 -6 -2 -4 -9 -4 -7 -4 5 -4 4 38 -10 -2 -49 -1 13 7 -14 -17 -10 -12 33 15 1 -7 1
-2 -2 -2 -1 -1 -0 -1 -0 -1 -0 -1 -0 -1 -1 -1 -2 -2 -10 1 -3 -2 -4 -5 -3 3 2 -1 2 11 -4 -22 -11 10 -13 -4 -5 1 -17 -5 -6 -9 -13 -6 -4 6
-1 -0 -0 -1 -3 -2 -1 -1 -1 -0 0 -0 -2 -1 -0 -1 10 -1 -4 -1 0 -2 -7 -4 -2 -2 1 0 -8 51 -41 13 3 25 -32 2 3 -15 -10 1 -19 11 -8 -1 -1
-1 -0 0 -1 -1 -2 -2 0 -1 -2 -1 -0 -2 -0 1 -5 -7 4 -3 -1 -1 -1 -5 -8 -4 -2 -0 -3 4 3 27 -41 22 -12 7 26 -10 4 10 1 -7 -2 -3 -2 -3
-1 -1 -1 -1 -1 -2 -1 -2 -1 1 -2 -0 -1 -3 -0 -10 -7 -6 -2 1 -2 -1 -4 -3 -7 -6 1 -1 11 16 -2 -5 11 4 -34 4 9 -13 6 11 -1 -4 -2 -2 -2
-2 -1 -1 -0 -1 -1 -2 -2 -1 -3 -1 -1 -2 -2 -6 -2 -8 24 -4 -3 0 -1 -2 -2 -1 8 3 -1 -9 -5 21 10 -20 -20 2 -10 21 -8 -1 4 4 -4 0 0 -3
-2 0 -0 -2 -3 -0 -1 -1 0 0 -1 -0 -1 -4 -21 7 -1 4 -1 -1 1 4 -3 3 -1 -4 10 -0 -3 13 10 8 -4 -6 3 -29 21 -25 15 -11 -2 -3 -1 1 -3
-1 -2 -0 -3 -1 -3 -1 -1 -1 -0 1 -1 0 -3 -21 -5 -7 3 7 -2 1 -1 2 -1 12 -9 -0 4 11 -3 4 -5 19 -7 14 -14 11 20 12 -10 7 4 -4 0 -0
-1 -3 0 -1 -1 -2 -2 -3 -1 0 -0 -0 0 -3 4 -7 -4 -4 -1 -0 1 2 3 3 5 2 -1 10 -13 -13 5 4 20 -19 15 1 -4 -30 -34 36 3 -5 1 -3 -1
1 1 -3 -0 -1 -2 3 -0 -0 -8 -1 1 10 3 13 -2 -2 -3 -4 6 8 3 -0 -5 6 -12 -7 -15 -8 4 15 -5 28 -11 -2 27 -2 -44 -4 14 -3 2 1 -3 -3
-4 -0 -0 -2 -1 -2 -1 -0 -1 0 -14 -1 -0 -11 -18 36 0 -3 8 2 6 -5 2 23 -12 -6 -2 1 -7 -2 3 0 45 16 -7 22 -2 -10 -25 21 -2 -2 -7 2 -3
-2 -2 0 0 -2 -1 -2 -1 -3 -1 -12 -3 -1 -6 -7 0 -3 6 -12 -5 3 2 1 -7 -10 -4 13 2 6 -9 -1 -4 12 22 3 21 15 62 66 -1 0 -6 2 -11 -0
-1 -4 -0 8 -3 4 -1 2 2 0 -6 -44 -4 -24 -13 2 -20 -1 3 -4 -1 1 -4 -0 -21 15 -5 1 6 5 -12 -4 1 30 -11 -1 -16 14 -84 14 -5 6 -8 2 -9
-0 -2 -2 -6 8 1 -9 4 0 1 8 10 4 1 7 -13 4 -18 1 16 -10 -6 23 -40 5 -2 5 -24 9 -34 7 1 -2 26 -3 6 26 5 3 28 5 -16 -3 -9 3
-1 0 -5 0 2 1 0 1 -4 5 -11 12 -6 -6 2 -1 11 20 -10 6 11 4 3 -12 5 5 -6 -5 -3 -4 12 8 7 6 20 5 1 -52 29 -21 -52 38 -16 4 -13
-3 -1 -1 -1 11 -6 -1 2 2 4 -3 -16 11 -4 13 1 -5 7 0 2 -5 19 -1 7 -15 8 2 22 3 12 22 2 14 19 -13 6 25 -43 -12 -22 2 -55 -11 -0 5
-2 -2 1 -5 9 -0 3 7 15 -7 -31 21 49 2 -12 12 -1 -10 6 3 -4 6 8 -4 20 -9 6 -16 -8 -22 6 -6 -6 -2 -17 -4 -7 -26 20 -5 -18 1 -25 35 -1
-2 2 -3 3 -1 6 5 -0 -14 -9 2 14 3 16 10 -8 26 -2 -3 -5 2 -15 2 19 -12 21 -15 18 -1 -12 9 -32 15 -1 26 -10 3 -4 26 34 -5 -101 17 26 47
-9 -3 1 -6 1 1 8 -14 5 -18 18 19 11 17 7 12 6 41 9 -14 -7 4 -14 -23 13 15 0 -3 2 -2 -1 29 5 10 1 -9 -10 -7 -3 34 -14 -12 -21 15 21
-2 -4 -5 4 9 5 -9 -8 -14 -18 10 17 2 1 -2 5 24 -19 -18 -4 3 -0 -1 -4 20 -29 41 1 -12 3 2 15 15 7 0 -2 -30 -9 9 -29 10 9 -3 -10 15
-7 -5 32 -1 11 0 0 1 5 -11 -5 10 6 -3 -1 7 7 21 -3 -16 -14 18 11 -19 -7 -7 -17 -7 -9 -1 -16 -10 23 -17 -10 1 -41 1 26 57 15 -7 -3 -3 -31
-2 -9 -12 4 4 -4 -3 -10 6 9 2 -10 -3 9 10 -11 17 12 22 10 29 -12 -10 -12 -10 12 1 15 32 -1 1 7 -12 9 -7 13 -39 -21 64 -74 37 -16 2 30 18
-4 -7 -11 32 -1 5 6 -4 -1 17 17 -1 25 23 11 9 -4 -19 -9 -14 31 11 4 31 13 -20 -17 -46 -4 16 3 0 8 19 -23 -22 2 -40 60 -23 -6 32 -25 5 10
6 -10 14 -27 -21 74 -15 2 -9 -20 17 10 -11 12 52 4 4 -0 -2 -17 5 -5 -2 5 -7 26 -21 -8 21 -6 -3 3 1 -18 16 -25 -9 9 -17 39 27 -29 -24 -11 8
-1 6 2 -9 -8 6 17 -21 -8 -30 17 4 7 -15 7 -0 22 -3 31 28 -5 5 31 -14 -14 -2 -3 10 -7 23 -10 12 -3 -4 -0 5 -0 -4 -18 -18 46 0 -4 -2 -12
4 5 7 1 -11 -11 -7 -9 -7 18 -26 14 18 -8 -15 30 -4 -2 8 1 -3 15 24 7 12 1 -19 -1 12 19 -18 9 8 2 -9 1 -33 10 10 19 14 54 32 27 5
Height
3159 3158 3157 3156 3155 3154 3153 3151 3149 3148 3147 3146 3144 3142 3140 3139 3139 3139 3141 3145 3147 3153 3156 3159 3160 3161 3163 3169 3169 3169 3168 3162 3161 3160 3161 3164 3165 3168 3168 3171 3171 3172 3173 3176 3179
3156 3155 3154 3153 3152 3151 3150 3149 3148 3147 3145 3144 3142 3140 3137 3136 3135 3133 3136 3138 3142 3148 3153 3157 3159 3160 3161 3167 3168 3170 3167 3163 3161 3160 3161 3164 3166 3168 3170 3173 3175 3175 3176 3178 3181
3153 3151 3150 3150 3149 3148 3147 3146 3146 3145 3144 3142 3141 3139 3136 3134 3133 3130 3132 3135 3139 3143 3149 3153 3157 3161 3161 3165 3165 3165 3166 3163 3156 3159 3163 3165 3166 3169 3170 3173 3175 3174 3175 3177 3183
3148 3147 3147 3145 3145 3144 3144 3143 3143 3142 3141 3140 3138 3137 3135 3133 3135 3128 3130 3132 3135 3139 3143 3149 3155 3158 3160 3163 3162 3164 3163 3161 3164 3162 3163 3164 3165 3169 3170 3172 3173 3176 3174 3177 3183
3144 3143 3142 3141 3140 3140 3141 3140 3139 3139 3138 3138 3136 3134 3133 3132 3130 3128 3129 3130 3132 3135 3139 3146 3152 3156 3157 3160 3161 3161 3161 3161 3161 3162 3163 3166 3164 3168 3172 3172 3173 3175 3174 3176 3181
3140 3139 3137 3136 3135 3135 3135 3136 3136 3135 3135 3134 3132 3131 3129 3128 3126 3125 3126 3127 3129 3132 3136 3142 3149 3154 3157 3158 3158 3158 3159 3159 3160 3161 3162 3163 3164 3167 3171 3173 3174 3174 3173 3176 3179
3137 3135 3134 3133 3131 3130 3129 3129 3130 3131 3131 3130 3128 3126 3125 3126 3126 3128 3125 3125 3127 3130 3133 3139 3146 3153 3155 3156 3157 3155 3156 3156 3158 3159 3160 3162 3163 3166 3168 3173 3174 3174 3174 3175 3178
3134 3132 3131 3129 3128 3126 3125 3124 3124 3125 3125 3125 3124 3121 3116 3122 3122 3122 3123 3124 3127 3131 3132 3138 3142 3147 3152 3155 3154 3154 3153 3152 3152 3155 3157 3162 3161 3165 3167 3171 3173 3173 3174 3175 3177
3131 3129 3127 3125 3124 3123 3122 3120 3119 3118 3118 3119 3119 3117 3112 3114 3115 3118 3121 3121 3124 3127 3131 3135 3141 3143 3149 3151 3151 3150 3148 3149 3148 3153 3155 3160 3162 3164 3168 3170 3172 3173 3174 3174 3175
3127 3125 3123 3121 3120 3119 3118 3117 3115 3113 3112 3113 3113 3115 3113 3112 3113 3114 3115 3118 3123 3126 3129 3132 3136 3138 3141 3145 3144 3144 3144 3143 3143 3148 3151 3155 3154 3157 3164 3169 3171 3171 3172 3173 3173
3121 3120 3119 3116 3115 3114 3114 3113 3114 3111 3105 3106 3108 3106 3110 3108 3113 3115 3116 3119 3122 3124 3125 3128 3131 3126 3132 3138 3142 3140 3139 3138 3138 3145 3149 3148 3149 3149 3155 3164 3167 3168 3170 3171 3172
3116 3114 3114 3113 3111 3110 3110 3109 3107 3106 3096 3097 3098 3096 3101 3111 3110 3112 3115 3116 3118 3119 3123 3126 3119 3126 3132 3136 3138 3138 3135 3133 3134 3137 3147 3146 3145 3142 3152 3157 3160 3163 3166 3168 3170
3111 3108 3108 3107 3106 3106 3105 3105 3104 3101 3093 3085 3089 3089 3094 3099 3101 3106 3109 3112 3113 3115 3116 3116 3119 3125 3128 3130 3133 3133 3132 3131 3131 3133 3137 3142 3143 3143 3145 3151 3155 3158 3161 3164 3165
3102 3100 3100 3101 3102 3101 3100 3099 3100 3099 3092 3078 3079 3078 3083 3091 3091 3098 3103 3107 3109 3109 3112 3112 3116 3118 3121 3122 3127 3127 3131 3130 3129 3130 3135 3138 3138 3141 3146 3147 3148 3149 3155 3158 3160
3093 3093 3094 3091 3094 3095 3095 3096 3097 3098 3095 3077 3075 3077 3078 3080 3084 3085 3092 3100 3099 3103 3109 3104 3109 3111 3111 3114 3121 3123 3128 3127 3127 3126 3131 3130 3134 3132 3136 3139 3140 3144 3146 3151 3155
3086 3084 3085 3084 3088 3087 3091 3093 3096 3101 3080 3073 3070 3071 3074 3077 3082 3082 3084 3093 3098 3100 3101 3101 3104 3105 3107 3113 3117 3123 3124 3124 3124 3123 3118 3121 3126 3124 3128 3127 3138 3138 3143 3146 3148
3077 3076 3075 3078 3082 3078 3082 3088 3095 3082 3071 3066 3066 3069 3070 3070 3075 3079 3080 3083 3086 3091 3090 3094 3094 3098 3103 3106 3110 3115 3119 3119 3117 3112 3108 3114 3116 3115 3118 3126 3127 3133 3136 3140 3141
3069 3067 3069 3070 3073 3074 3077 3082 3074 3059 3063 3060 3063 3064 3066 3069 3068 3071 3074 3076 3080 3083 3085 3085 3087 3091 3094 3095 3102 3105 3108 3106 3108 3105 3107 3108 3103 3108 3112 3115 3121 3127 3120 3130 3133
3060 3059 3061 3061 3064 3067 3069 3063 3046 3054 3057 3059 3060 3057 3058 3062 3064 3063 3063 3067 3070 3074 3077 3076 3077 3082 3086 3092 3096 3095 3097 3102 3105 3103 3101 3098 3100 3104 3108 3110 3112 3122 3128 3130 3127
3050 3048 3055 3052 3055 3058 3054 3035 3042 3048 3053 3055 3053 3054 3051 3051 3055 3055 3054 3057 3062 3066 3072 3072 3073 3073 3078 3086 3082 3083 3094 3098 3096 3095 3092 3093 3093 3095 3100 3104 3107 3114 3118 3125 3128
3043 3041 3048 3049 3049 3048 3036 3032 3039 3039 3042 3045 3044 3045 3042 3044 3044 3045 3046 3051 3054 3059 3063 3068 3070 3069 3069 3066 3078 3085 3085 3086 3090 3091 3085 3088 3085 3092 3094 3099 3103 3106 3112 3119 3122
3035 3036 3048 3044 3044 3038 3032 3034 3038 3034 3037 3037 3040 3037 3034 3035 3035 3035 3037 3041 3048 3051 3051 3057 3063 3062 3058 3063 3068 3072 3071 3078 3079 3078 3080 3083 3080 3086 3090 3090 3096 3101 3106 3110 3113
3027 3024 3034 3033 3030 3031 3029 3026 3027 3028 3029 3029 3029 3030 3032 3028 3029 3026 3028 3034 3039 3041 3043 3049 3050 3056 3058 3055 3055 3058 3067 3073 3076 3079 3074 3079 3076 3080 3088 3091 3097 3098 3102 3106 3108
3022 3021 3023 3025 3023 3025 3024 3018 3017 3019 3020 3023 3020 3021 3022 3020 3022 3021 3021 3022 3029 3032 3035 3038 3039 3040 3039 3044 3051 3053 3055 3061 3066 3067 3067 3069 3075 3079 3082 3084 3093 3093 3098 3101 3103
3020 3018 3020 3014 3013 3014 3012 3012 3009 3007 3009 3009 3005 3008 3011 3011 3012 3014 3019 3018 3018 3023 3026 3031 3030 3033 3037 3040 3043 3044 3048 3052 3056 3057 3061 3062 3067 3074 3074 3081 3083 3089 3093 3096 3100
3014 3015 3012 3009 3007 3006 3007 3007 3007 3004 3007 3003 3002 2999 3000 3001 3005 3001 3006 3010 3012 3015 3019 3023 3024 3029 3029 3032 3034 3036 3040 3042 3045 3050 3053 3058 3060 3068 3073 3074 3080 3082 3086 3090 3093
3009 3010 3007 3004 3006 3006 3002 3002 3000 3001 2998 2999 2997 2995 2994 2999 2992 2990 2993 2994 2998 3002 3008 3016 3018 3025 3024 3028 3029 3030 3026 3034 3038 3043 3048 3051 3052 3060 3063 3068 3073 3078 3079 3082 3086